| time (UTC) | temp C | wind direction | speed KPH | gust KPH | rain 1hr cm | rain 24hr cm | rain mn cm | humidity % | barometer mb |
| 20260506194241 | 8 | 232 | 0.0 | 1.6 | 0.00 | 0.00 | 0.00 | 37 | 933.6 |
| 20260506193740 | 7 | 306 | 1.6 | 9.7 | 0.00 | 0.00 | 0.00 | 43 | 933.4 |
| 20260506193236 | 7 | 304 | 8.0 | 12.9 | 0.00 | 0.00 | 0.00 | 39 | 933.3 |
| 20260506192732 | 7 | 334 | 6.4 | 17.7 | 0.00 | 0.00 | 0.00 | 42 | 933.5 |
| 20260506192229 | 7 | 321 | 12.9 | 16.1 | 0.00 | 0.00 | 0.00 | 43 | 933.3 |
| 20260506191726 | 6 | 334 | 0.0 | 16.1 | 0.00 | 0.00 | 0.00 | 44 | 933.7 |
| 20260506191222 | 6 | 6 | 14.5 | 20.9 | 0.00 | 0.00 | 0.00 | 41 | 933.4 |
| 20260506190720 | 7 | 343 | 14.5 | 17.7 | 0.00 | 0.00 | 0.00 | 41 | 933.5 |
| 20260506190216 | 6 | 267 | 8.0 | 14.5 | 0.00 | 0.00 | 0.00 | 47 | 933.5 |
| 20260506185713 | 7 | 299 | 4.8 | 12.9 | 0.00 | 0.00 | 0.00 | 49 | 933.9 |
| 20260506185209 | 6 | 232 | 8.0 | 9.7 | 0.00 | 0.00 | 0.00 | 51 | 933.5 |
| 20260506184707 | 6 | 292 | 6.4 | 14.5 | 0.00 | 0.00 | 0.00 | 51 | 933.6 |
| 20260506184204 | 6 | 346 | 11.3 | 14.5 | 0.00 | 0.00 | 0.00 | 52 | 933.5 |
| 20260506183701 | 5 | 352 | 14.5 | 17.7 | 0.00 | 0.00 | 0.00 | 56 | 933.7 |
| 20260506183157 | 6 | 272 | 8.0 | 14.5 | 0.00 | 0.00 | 0.00 | 54 | 933.2 |
| 20260506182654 | 6 | 6 | 4.8 | 8.0 | 0.00 | 0.00 | 0.00 | 54 | 933.5 |
| 20260506182151 | 6 | 310 | 11.3 | 22.5 | 0.00 | 0.00 | 0.00 | 55 | 933.5 |
| 20260506181649 | 6 | 326 | 4.8 | 4.8 | 0.00 | 0.00 | 0.00 | 50 | 933.7 |
| 20260506181146 | 6 | 353 | 17.7 | 20.9 | 0.00 | 0.00 | 0.00 | 48 | 933.6 |
| 20260506180643 | 6 | 316 | 8.0 | 9.7 | 0.00 | 0.00 | 0.00 | 52 | 933.4 |
| 20260506180139 | 5 | 359 | 8.0 | 11.3 | 0.00 | 0.00 | 0.00 | 52 | 933.5 |
| 20260506175636 | 6 | 123 | 4.8 | 4.8 | 0.00 | 0.00 | 0.00 | 53 | 933.2 |
| 20260506175132 | 4 | 297 | 4.8 | 4.8 | 0.00 | 0.00 | 0.00 | 58 | 933.2 |
| 20260506174625 | 4 | 334 | 8.0 | 11.3 | 0.00 | 0.00 | 0.00 | 60 | 932.8 |
| 20260506174121 | 4 | 352 | 8.0 | 12.9 | 0.00 | 0.00 | 0.00 | 63 | 933.2 |
| 20260506173619 | 4 | 59 | 1.6 | 9.7 | 0.00 | 0.00 | 0.00 | 56 | 933.1 |
| 20260506173115 | 6 | 31 | 6.4 | 9.7 | 0.00 | 0.00 | 0.00 | 57 | 933.2 |
| 20260506172613 | 5 | 132 | 4.8 | 9.7 | 0.00 | 0.00 | 0.00 | 60 | 933.2 |
| 20260506172109 | 5 | 72 | 8.0 | 11.3 | 0.00 | 0.00 | 0.00 | 59 | 933.1 |
| 20260506171607 | 5 | 163 | 4.8 | 8.0 | 0.00 | 0.00 | 0.00 | 58 | 933.2 |
| 20260506171104 | 5 | 75 | 3.2 | 8.0 | 0.00 | 0.00 | 0.00 | 58 | 932.9 |
| 20260506170601 | 3 | 106 | 1.6 | 12.9 | 0.00 | 0.00 | 0.00 | 62 | 932.9 |
| 20260506170059 | 4 | 83 | 4.8 | 11.3 | 0.00 | 0.00 | 0.00 | 63 | 933.1 |
| 20260506165557 | 4 | 130 | 8.0 | 11.3 | 0.00 | 0.00 | 0.00 | 66 | 933.1 |
| 20260506165053 | 3 | 87 | 4.8 | 4.8 | 0.00 | 0.00 | 0.00 | 66 | 932.7 |
| 20260506164550 | 3 | 96 | 9.7 | 11.3 | 0.00 | 0.00 | 0.00 | 66 | 932.6 |
| 20260506164047 | 3 | 68 | 4.8 | 9.7 | 0.00 | 0.00 | 0.00 | 68 | 932.7 |
| 20260506163543 | 3 | 108 | 6.4 | 11.3 | 0.00 | 0.00 | 0.00 | 69 | 932.7 |
| 20260506163039 | 3 | 124 | 3.2 | 8.0 | 0.00 | 0.00 | 0.00 | 69 | 932.8 |
| 20260506162535 | 3 | 79 | 8.0 | 11.3 | 0.00 | 0.00 | 0.00 | 69 | 932.6 |
| 20260506162033 | 2 | 80 | 4.8 | 8.0 | 0.00 | 0.00 | 0.00 | 70 | 932.5 |
| 20260506161530 | 3 | 60 | 3.2 | 8.0 | 0.00 | 0.00 | 0.00 | 68 | 932.8 |
| 20260506161027 | 2 | 51 | 1.6 | 11.3 | 0.00 | 0.00 | 0.00 | 69 | 932.5 |
| 20260506160525 | 2 | 99 | 3.2 | 4.8 | 0.00 | 0.00 | 0.00 | 70 | 932.8 |
| 20260506160022 | 3 | 68 | 0.0 | 1.6 | 0.00 | 0.00 | 0.00 | 71 | 932.4 |
| 20260506155520 | 2 | 87 | 3.2 | 8.0 | 0.00 | 0.00 | 0.00 | 74 | 932.5 |
| 20260506153651 | 1 | 75 | 4.8 | 8.0 | 0.00 | 0.00 | 0.00 | 77 | 932.5 |
| 20260506153149 | 1 | 56 | 3.2 | 4.8 | 0.00 | 0.00 | 0.00 | 77 | 932.5 |
| 20260506152645 | 1 | 77 | 4.8 | 8.0 | 0.00 | 0.00 | 0.00 | 78 | 932.6 |
| 20260506152143 | 0 | 47 | 3.2 | 8.0 | 0.00 | 0.00 | 0.00 | 78 | 932.9 |
| 20260506151641 | 1 | 92 | 4.8 | 4.8 | 0.00 | 0.00 | 0.00 | 77 | 932.6 |
| 20260506151138 | 0 | 123 | 4.8 | 8.0 | 0.00 | 0.00 | 0.00 | 78 | 932.5 |
| 20260506150635 | 1 | 77 | 3.2 | 8.0 | 0.00 | 0.00 | 0.00 | 79 | 932.7 |
| 20260506150132 | 1 | 103 | 4.8 | 9.7 | 0.00 | 0.00 | 0.00 | 79 | 933.1 |
| 20260506145629 | 1 | 87 | 8.0 | 9.7 | 0.00 | 0.00 | 0.00 | 80 | 933.1 |
| 20260506145125 | 1 | 90 | 4.8 | 9.7 | 0.00 | 0.00 | 0.00 | 80 | 933.3 |
| 20260506144623 | 0 | 122 | 9.7 | 12.9 | 0.00 | 0.00 | 0.00 | 80 | 933.5 |
| 20260506144119 | 0 | 59 | 6.4 | 11.3 | 0.00 | 0.00 | 0.00 | 81 | 933.5 |
| 20260506143617 | 0 | 102 | 6.4 | 12.9 | 0.00 | 0.00 | 0.00 | 81 | 933.9 |
| 20260506143115 | 0 | 112 | 8.0 | 9.7 | 0.00 | 0.00 | 0.00 | 82 | 934.1 |
| 20260506142613 | 0 | 118 | 4.8 | 9.7 | 0.00 | 0.00 | 0.00 | 83 | 934.3 |
| 20260506142111 | 0 | 97 | 4.8 | 8.0 | 0.00 | 0.00 | 0.00 | 83 | 934.1 |
| 20260506141608 | 0 | 111 | 8.0 | 9.7 | 0.00 | 0.00 | 0.00 | 83 | 933.7 |
| 20260506141107 | 0 | 107 | 4.8 | 8.0 | 0.00 | 0.00 | 0.00 | 84 | 932.9 |
| 20260506140604 | 0 | 105 | 6.4 | 9.7 | 0.00 | 0.00 | 0.00 | 85 | 932.1 |
| 20260506140101 | 0 | 111 | 4.8 | 9.7 | 0.00 | 0.00 | 0.00 | 86 | 931.3 |
| 20260506135557 | 0 | 90 | 12.9 | 16.1 | 0.00 | 0.00 | 0.00 | 86 | 931.5 |
| 20260506135054 | 0 | 101 | 8.0 | 11.3 | 0.00 | 0.00 | 0.00 | 87 | 931.6 |
| 20260506134550 | 0 | 87 | 11.3 | 12.9 | 0.00 | 0.00 | 0.00 | 87 | 931.7 |
| 20260506134046 | 0 | 107 | 9.7 | 12.9 | 0.00 | 0.00 | 0.00 | 87 | 931.2 |
| 20260506133544 | -1 | 71 | 8.0 | 11.3 | 0.00 | 0.00 | 0.00 | 87 | 931.1 |
| 20260506133041 | -1 | 78 | 8.0 | 16.1 | 0.00 | 0.00 | 0.00 | 87 | 931.1 |
| 20260506132538 | -1 | 74 | 6.4 | 14.5 | 0.00 | 0.00 | 0.00 | 87 | 931.0 |
| 20260506132035 | -1 | 95 | 11.3 | 14.5 | 0.00 | 0.00 | 0.00 | 87 | 931.0 |
| 20260506131532 | -1 | 108 | 8.0 | 14.5 | 0.00 | 0.00 | 0.00 | 87 | 930.9 |
| 20260506131028 | -1 | 122 | 8.0 | 12.9 | 0.00 | 0.00 | 0.00 | 87 | 930.7 |
| 20260506130525 | -1 | 109 | 6.4 | 14.5 | 0.00 | 0.00 | 0.00 | 87 | 930.8 |
| 20260506130023 | -1 | 91 | 11.3 | 16.1 | 0.00 | 0.00 | 0.00 | 87 | 930.3 |
| 20260506125521 | -1 | 90 | 14.5 | 16.1 | 0.00 | 0.00 | 0.00 | 88 | 930.8 |
| 20260506125018 | -1 | 112 | 11.3 | 16.1 | 0.00 | 0.00 | 0.00 | 88 | 930.5 |
| 20260506124516 | -1 | 92 | 9.7 | 14.5 | 0.00 | 0.00 | 0.00 | 89 | 930.4 |
| 20260506124014 | -1 | 110 | 6.4 | 11.3 | 0.00 | 0.00 | 0.00 | 89 | 930.3 |
| 20260506123512 | -1 | 79 | 6.4 | 11.3 | 0.00 | 0.00 | 0.00 | 89 | 930.5 |
| 20260506123009 | -1 | 65 | 8.0 | 12.9 | 0.00 | 0.00 | 0.00 | 89 | 930.3 |
| 20260506122506 | -1 | 101 | 11.3 | 12.9 | 0.00 | 0.00 | 0.00 | 89 | 930.2 |
| 20260506122004 | -1 | 87 | 4.8 | 14.5 | 0.00 | 0.00 | 0.00 | 90 | 930.0 |
| 20260506121501 | -2 | 72 | 9.7 | 11.3 | 0.00 | 0.00 | 0.00 | 91 | 929.9 |
| 20260506120957 | -2 | 95 | 9.7 | 12.9 | 0.00 | 0.00 | 0.00 | 91 | 930.0 |
| 20260506120455 | -2 | 71 | 0.0 | 0.0 | 0.00 | 0.00 | 0.00 | 91 | 930.0 |
| 20260506115952 | -2 | 82 | 3.2 | 8.0 | 0.00 | 0.00 | 0.00 | 91 | 930.1 |
| 20260506115450 | -2 | 76 | 4.8 | 9.7 | 0.00 | 0.00 | 0.00 | 91 | 929.7 |
| 20260506114948 | -2 | 78 | 4.8 | 8.0 | 0.00 | 0.00 | 0.00 | 91 | 929.9 |
| 20260506114445 | -2 | 71 | 6.4 | 9.7 | 0.00 | 0.00 | 0.00 | 91 | 929.6 |
| 20260506113944 | -2 | 62 | 4.8 | 9.7 | 0.00 | 0.00 | 0.00 | 91 | 929.9 |
| 20260506113442 | -2 | 69 | 3.2 | 8.0 | 0.00 | 0.00 | 0.00 | 90 | 929.7 |
| 20260506112937 | -2 | 63 | 1.6 | 3.2 | 0.00 | 0.00 | 0.00 | 90 | 929.7 |
| 20260506112435 | -2 | 67 | 1.6 | 4.8 | 0.00 | 0.00 | 0.00 | 90 | 929.5 |
| 20260506111932 | -2 | 81 | 6.4 | 8.0 | 0.00 | 0.00 | 0.00 | 89 | 929.6 |
| 20260506111430 | -2 | 63 | 0.0 | 4.8 | 0.00 | 0.00 | 0.00 | 89 | 929.5 |
| 20260506110927 | -1 | 46 | 3.2 | 4.8 | 0.00 | 0.00 | 0.00 | 89 | 929.3 |
| 20260506110425 | -1 | 34 | 0.0 | 3.2 | 0.00 | 0.00 | 0.00 | 89 | 929.3 |
| 20260506105921 | -1 | 37 | 3.2 | 9.7 | 0.00 | 0.00 | 0.00 | 88 | 929.3 |
| 20260506105418 | -1 | 39 | 4.8 | 12.9 | 0.00 | 0.00 | 0.00 | 88 | 929.6 |
| 20260506104915 | -1 | 60 | 6.4 | 12.9 | 0.00 | 0.00 | 0.00 | 88 | 929.2 |
| 20260506104413 | -1 | 56 | 6.4 | 12.9 | 0.00 | 0.00 | 0.00 | 88 | 929.3 |
| 20260506103911 | -1 | 89 | 9.7 | 14.5 | 0.00 | 0.00 | 0.00 | 87 | 929.5 |
| 20260506103408 | -1 | 61 | 9.7 | 20.9 | 0.00 | 0.00 | 0.00 | 88 | 929.3 |
| 20260506102905 | -1 | 72 | 14.5 | 17.7 | 0.00 | 0.00 | 0.00 | 88 | 929.4 |
| 20260506102404 | -1 | 65 | 4.8 | 9.7 | 0.00 | 0.00 | 0.00 | 88 | 929.3 |
| 20260506101901 | -1 | 61 | 0.0 | 4.8 | 0.00 | 0.00 | 0.00 | 87 | 929.1 |
| 20260506101357 | -1 | 61 | 4.8 | 8.0 | 0.00 | 0.00 | 0.00 | 87 | 929.2 |
| 20260506100854 | -1 | 114 | 8.0 | 12.9 | 0.00 | 0.00 | 0.00 | 87 | 929.1 |
| 20260506100353 | -1 | 109 | 9.7 | 14.5 | 0.00 | 0.00 | 0.00 | 87 | 929.2 |
| 20260506095850 | -1 | 118 | 8.0 | 14.5 | 0.00 | 0.00 | 0.00 | 87 | 929.4 |
| 20260506095348 | -1 | 61 | 0.0 | 0.0 | 0.00 | 0.00 | 0.00 | 88 | 929.2 |
| 20260506094844 | 0 | 74 | 0.0 | 3.2 | 0.00 | 0.00 | 0.00 | 88 | 929.1 |
| 20260506094343 | 0 | 69 | 4.8 | 9.7 | 0.00 | 0.00 | 0.00 | 87 | 929.3 |
| 20260506093841 | 0 | 61 | 3.2 | 11.3 | 0.00 | 0.00 | 0.00 | 87 | 929.1 |
| 20260506093338 | 0 | 137 | 14.5 | 17.7 | 0.00 | 0.00 | 0.00 | 88 | 929.2 |
| 20260506092835 | 0 | 138 | 14.5 | 14.5 | 0.00 | 0.00 | 0.00 | 89 | 929.2 |
| 20260506092334 | 0 | 106 | 9.7 | 24.1 | 0.00 | 0.00 | 0.00 | 89 | 929.3 |
| 20260506091830 | -1 | 98 | 16.1 | 22.5 | 0.00 | 0.00 | 0.00 | 91 | 929.6 |
| 20260506091328 | -1 | 87 | 12.9 | 20.9 | 0.00 | 0.00 | 0.00 | 91 | 929.5 |
| 20260506090825 | -1 | 121 | 17.7 | 27.4 | 0.00 | 0.00 | 0.00 | 92 | 929.4 |
| 20260506090322 | -1 | 36 | 12.9 | 17.7 | 0.00 | 0.00 | 0.00 | 92 | 929.5 |
| 20260506085819 | -1 | 67 | 9.7 | 17.7 | 0.00 | 0.00 | 0.00 | 92 | 929.6 |
| 20260506085315 | -1 | 80 | 9.7 | 17.7 | 0.00 | 0.00 | 0.00 | 93 | 929.5 |
| 20260506084811 | 0 | 126 | 14.5 | 22.5 | 0.00 | 0.00 | 0.00 | 93 | 929.5 |
| 20260506084308 | -1 | 95 | 11.3 | 24.1 | 0.00 | 0.00 | 0.00 | 93 | 929.6 |
| 20260506083805 | 0 | 89 | 19.3 | 25.7 | 0.00 | 0.00 | 0.00 | 93 | 929.5 |
| 20260506083302 | -1 | 79 | 11.3 | 12.9 | 0.00 | 0.00 | 0.00 | 93 | 929.6 |
| 20260506082759 | 0 | 107 | 6.4 | 12.9 | 0.00 | 0.00 | 0.00 | 93 | 929.5 |
| 20260506082255 | -1 | 143 | 12.9 | 20.9 | 0.00 | 0.00 | 0.00 | 93 | 929.5 |
| 20260506081753 | 0 | 95 | 11.3 | 20.9 | 0.00 | 0.00 | 0.00 | 92 | 929.4 |
| 20260506081250 | 0 | 96 | 14.5 | 29.0 | 0.00 | 0.00 | 0.00 | 91 | 929.3 |
| 20260506080748 | 0 | 112 | 19.3 | 29.0 | 0.00 | 0.00 | 0.00 | 90 | 929.3 |
| 20260506080244 | 0 | 107 | 16.1 | 24.1 | 0.00 | 0.00 | 0.00 | 89 | 928.9 |
| 20260506073228 | 0 | 111 | 27.4 | 38.6 | 0.00 | 0.00 | 0.00 | 93 | 928.7 |
| 20260506072725 | 0 | 114 | 20.9 | 40.2 | 0.00 | 0.00 | 0.00 | 94 | 928.6 |
| 20260506072223 | 0 | 105 | 22.5 | 35.4 | 0.00 | 0.00 | 0.00 | 95 | 928.4 |
| 20260506071720 | 0 | 72 | 29.0 | 40.2 | 0.00 | 0.00 | 0.00 | 95 | 928.5 |
| 20260506071218 | 0 | 104 | 25.7 | 49.9 | 0.00 | 0.00 | 0.00 | 96 | 928.3 |
| 20260506070714 | 0 | 103 | 32.2 | 43.5 | 0.00 | 0.00 | 0.00 | 96 | 928.5 |
| 20260506070212 | 0 | 103 | 19.3 | 24.1 | 0.00 | 0.00 | 0.00 | 97 | 928.1 |
| 20260506062148 | 0 | 68 | 29.0 | 48.3 | 0.00 | 0.00 | 0.00 | 96 | 927.1 |
| 20260506061644 | 0 | 69 | 19.3 | 41.8 | 0.00 | 0.00 | 0.00 | 96 | 927.0 |
| 20260506061142 | 1 | 103 | 24.1 | 35.4 | 0.00 | 0.00 | 0.00 | 96 | 927.0 |
| 20260506060640 | 1 | 93 | 14.5 | 38.6 | 0.00 | 0.00 | 0.00 | 95 | 926.8 |
| 20260506060137 | 1 | 69 | 12.9 | 40.2 | 0.00 | 0.00 | 0.00 | 95 | 926.8 |
| 20260506051109 | 2 | 80 | 14.5 | 25.7 | 0.00 | 0.99 | 0.99 | 90 | 926.1 |
| 20260506050607 | 2 | 53 | 14.5 | 46.7 | 0.00 | 0.99 | 0.99 | 90 | 925.6 |
| 20260506050104 | 2 | 85 | 11.3 | 27.4 | 0.00 | 0.99 | 0.99 | 91 | 925.9 |
| 20260506045057 | 2 | 56 | 24.1 | 37.0 | 0.00 | 0.99 | 0.99 | 92 | 925.9 |
| 20260506044555 | 3 | 67 | 20.9 | 35.4 | 0.00 | 0.99 | 0.99 | 92 | 925.5 |
| 20260506044052 | 3 | 71 | 27.4 | 38.6 | 0.00 | 0.99 | 0.99 | 92 | 925.5 |
| 20260506043549 | 3 | 58 | 16.1 | 41.8 | 0.00 | 0.99 | 0.99 | 91 | 925.4 |
| 20260506043047 | 4 | 85 | 24.1 | 37.0 | 0.00 | 0.99 | 0.99 | 91 | 925.6 |
| 20260506042546 | 4 | 75 | 14.5 | 29.0 | 0.00 | 0.99 | 0.99 | 91 | 925.5 |
| 20260506042044 | 4 | 63 | 12.9 | 27.4 | 0.00 | 0.99 | 0.99 | 90 | 925.4 |
| 20260506041542 | 5 | 85 | 25.7 | 29.0 | 0.00 | 0.99 | 0.99 | 90 | 925.4 |
| 20260506041038 | 5 | 84 | 12.9 | 20.9 | 0.00 | 0.99 | 0.99 | 89 | 925.1 |
| 20260506040536 | 5 | 79 | 16.1 | 24.1 | 0.00 | 0.99 | 0.99 | 89 | 924.9 |
| 20260506040032 | 5 | 47 | 16.1 | 20.9 | 0.00 | 0.99 | 0.99 | 89 | 925.1 |
| 20260506035529 | 4 | 87 | 11.3 | 20.9 | 0.00 | 0.99 | 0.99 | 89 | 925.1 |
| 20260506035026 | 4 | 96 | 8.0 | 14.5 | 0.00 | 0.99 | 0.99 | 88 | 924.8 |
| 20260506034524 | 5 | 66 | 9.7 | 16.1 | 0.00 | 0.99 | 0.99 | 88 | 924.8 |
| 20260506034020 | 5 | 70 | 12.9 | 22.5 | 0.00 | 0.99 | 0.99 | 88 | 924.5 |
| 20260506033518 | 5 | 73 | 3.2 | 22.5 | 0.00 | 0.99 | 0.99 | 87 | 924.6 |
| 20260506033015 | 5 | 67 | 14.5 | 24.1 | 0.00 | 0.99 | 0.99 | 87 | 924.4 |
| 20260506032512 | 5 | 52 | 12.9 | 27.4 | 0.00 | 0.99 | 0.99 | 86 | 924.0 |
| 20260506032008 | 5 | 51 | 14.5 | 17.7 | 0.00 | 0.99 | 0.99 | 85 | 924.0 |
| 20260506031506 | 6 | 48 | 3.2 | 8.0 | 0.00 | 0.99 | 0.99 | 84 | 923.8 |
| 20260506031003 | 5 | 71 | 8.0 | 11.3 | 0.00 | 0.99 | 0.99 | 86 | 923.7 |
| 20260506030501 | 5 | 71 | 4.8 | 11.3 | 0.00 | 0.99 | 0.99 | 85 | 923.8 |
| 20260506025958 | 6 | 50 | 3.2 | 4.8 | 0.00 | 0.99 | 0.99 | 82 | 923.6 |
| 20260506025454 | 6 | 94 | 1.6 | 3.2 | 0.00 | 0.99 | 0.99 | 82 | 923.6 |
| 20260506024951 | 6 | 197 | 4.8 | 8.0 | 0.00 | 0.99 | 0.99 | 82 | 923.6 |
| 20260506024448 | 6 | 140 | 3.2 | 4.8 | 0.00 | 0.99 | 0.99 | 81 | 923.5 |
| 20260506023943 | 6 | 87 | 0.0 | 3.2 | 0.00 | 0.99 | 0.99 | 81 | 923.3 |
| 20260506023441 | 6 | 83 | 1.6 | 4.8 | 0.00 | 0.99 | 0.99 | 82 | 923.3 |
| 20260506022937 | 6 | 81 | 6.4 | 8.0 | 0.00 | 0.99 | 0.99 | 83 | 923.3 |
| 20260506022435 | 6 | 46 | 3.2 | 3.2 | 0.00 | 0.99 | 0.99 | 82 | 923.1 |
| 20260506021933 | 7 | 144 | 4.8 | 8.0 | 0.00 | 0.99 | 0.99 | 81 | 923.1 |
| 20260506021430 | 7 | 69 | 1.6 | 1.6 | 0.00 | 0.99 | 0.99 | 80 | 923.2 |
| 20260506020927 | 7 | 21 | 1.6 | 3.2 | 0.00 | 0.99 | 0.99 | 79 | 923.6 |
| 20260506020425 | 7 | 25 | 0.0 | 3.2 | 0.00 | 0.99 | 0.99 | 79 | 923.5 |
| 20260506015921 | 7 | 90 | 1.6 | 3.2 | 0.00 | 0.99 | 0.99 | 79 | 923.5 |
| 20260506015419 | 7 | 77 | 0.0 | 3.2 | 0.00 | 0.99 | 0.99 | 78 | 923.3 |
| 20260506014916 | 7 | 47 | 0.0 | 1.6 | 0.00 | 0.99 | 0.99 | 78 | 923.5 |
| 20260506014413 | 7 | 16 | 1.6 | 3.2 | 0.00 | 0.99 | 0.99 | 77 | 923.6 |
| 20260506013909 | 8 | 18 | 3.2 | 4.8 | 0.00 | 0.99 | 0.99 | 76 | 923.1 |
| 20260506013408 | 8 | 5 | 1.6 | 3.2 | 0.00 | 0.99 | 0.99 | 75 | 923.5 |
| 20260506012903 | 8 | 251 | 1.6 | 9.7 | 0.00 | 0.99 | 0.99 | 76 | 923.5 |
| 20260506012400 | 8 | 180 | 3.2 | 4.8 | 0.00 | 0.99 | 0.99 | 74 | 923.6 |
| 20260506011857 | 8 | 226 | 11.3 | 17.7 | 0.00 | 0.99 | 0.99 | 74 | 923.5 |
| 20260506011354 | 8 | 228 | 12.9 | 16.1 | 0.00 | 0.99 | 0.99 | 74 | 923.2 |
| 20260506010851 | 9 | 255 | 8.0 | 9.7 | 0.00 | 0.99 | 0.99 | 75 | 923.9 |
| 20260506010350 | 9 | 243 | 6.4 | 9.7 | 0.00 | 0.99 | 0.99 | 76 | 923.9 |
| 20260506005846 | 9 | 219 | 6.4 | 11.3 | 0.00 | 0.99 | 0.99 | 79 | 923.5 |
| 20260506005343 | 8 | 173 | 4.8 | 9.7 | 0.00 | 0.99 | 0.99 | 80 | 923.7 |
| 20260506004838 | 8 | 151 | 4.8 | 8.0 | 0.00 | 0.99 | 0.99 | 79 | 923.5 |
| 20260506004337 | 8 | 105 | 1.6 | 4.8 | 0.00 | 0.99 | 0.99 | 81 | 923.6 |
| 20260506003833 | 8 | 203 | 4.8 | 8.0 | 0.00 | 0.99 | 0.99 | 82 | 923.5 |
| 20260506003329 | 8 | 219 | 1.6 | 4.8 | 0.00 | 0.99 | 0.99 | 84 | 923.6 |
| 20260506002825 | 8 | 117 | 6.4 | 8.0 | 0.00 | 0.99 | 0.99 | 82 | 923.7 |
| 20260506002322 | 8 | 93 | 0.0 | 3.2 | 0.00 | 0.99 | 0.99 | 82 | 923.7 |
| 20260506001817 | 8 | 64 | 0.0 | 3.2 | 0.00 | 0.99 | 0.99 | 82 | 923.2 |
| 20260506001315 | 8 | 115 | 1.6 | 8.0 | 0.18 | 0.99 | 0.99 | 81 | 923.6 |
| 20260506000812 | 8 | 7 | 3.2 | 4.8 | 0.18 | 0.99 | 0.99 | 79 | 923.3 |
| 20260506000310 | 8 | 11 | 1.6 | 4.8 | 0.13 | 0.97 | 0.97 | 79 | 923.5 |
| 20260505235806 | 8 | 205 | 9.7 | 17.7 | 0.30 | 0.97 | 0.97 | 82 | 923.7 |
| 20260505235305 | 9 | 174 | 8.0 | 11.3 | 0.18 | 0.94 | 0.94 | 81 | 923.6 |
| 20260505234800 | 10 | 148 | 1.6 | 14.5 | 0.00 | 0.91 | 0.91 | 78 | 923.5 |
| 20260505234258 | 9 | 314 | 6.4 | 11.3 | 0.00 | 0.91 | 0.91 | 72 | 923.5 |
| 20260505233755 | 10 | 217 | 9.7 | 20.9 | 0.00 | 0.91 | 0.91 | 75 | 923.5 |
| 20260505233253 | 10 | 243 | 9.7 | 11.3 | 0.00 | 0.91 | 0.91 | 74 | 923.8 |
| 20260505232750 | 10 | 254 | 9.7 | 12.9 | 0.00 | 0.91 | 0.91 | 74 | 923.6 |
| 20260505232247 | 10 | 210 | 8.0 | 12.9 | 0.00 | 0.91 | 0.91 | 73 | 923.8 |
| 20260505231743 | 10 | 245 | 6.4 | 16.1 | 0.00 | 0.91 | 0.91 | 73 | 923.7 |
| 20260505231242 | 10 | 255 | 11.3 | 14.5 | 0.00 | 0.91 | 0.91 | 72 | 923.8 |
| 20260505230740 | 10 | 274 | 8.0 | 12.9 | 0.00 | 0.91 | 0.91 | 71 | 924.0 |
| 20260505230237 | 10 | 283 | 11.3 | 16.1 | 0.00 | 0.91 | 0.91 | 72 | 923.9 |
| 20260505225733 | 10 | 223 | 8.0 | 11.3 | 0.00 | 0.91 | 0.91 | 73 | 923.9 |
| 20260505225230 | 10 | 226 | 9.7 | 11.3 | 0.00 | 0.91 | 0.91 | 73 | 924.1 |
| 20260505224725 | 10 | 0 | 6.4 | 11.3 | 0.00 | 0.91 | 0.91 | 73 | 924.1 |
| 20260505224224 | 9 | 188 | 6.4 | 20.9 | 0.00 | 0.91 | 0.91 | 74 | 924.4 |
| 20260505223721 | 9 | 234 | 9.7 | 12.9 | 0.00 | 0.91 | 0.91 | 73 | 924.3 |
| 20260505223217 | 9 | 218 | 4.8 | 16.1 | 0.00 | 0.91 | 0.91 | 74 | 924.3 |
| 20260505222713 | 8 | 200 | 6.4 | 9.7 | 0.00 | 0.91 | 0.91 | 75 | 924.4 |
| 20260505222209 | 8 | 230 | 8.0 | 11.3 | 0.00 | 0.91 | 0.91 | 76 | 924.3 |
| 20260505221707 | 8 | 245 | 8.0 | 12.9 | 0.00 | 0.91 | 0.91 | 76 | 924.3 |
| 20260505221203 | 8 | 250 | 6.4 | 14.5 | 0.00 | 0.91 | 0.91 | 76 | 924.6 |
| 20260505220700 | 9 | 259 | 6.4 | 11.3 | 0.00 | 0.91 | 0.91 | 75 | 924.3 |
| 20260505220158 | 8 | 275 | 4.8 | 12.9 | 0.00 | 0.91 | 0.91 | 74 | 924.8 |
| 20260505215655 | 9 | 236 | 8.0 | 16.1 | 0.00 | 0.91 | 0.91 | 73 | 924.6 |
| 20260505215153 | 8 | 272 | 6.4 | 14.5 | 0.00 | 0.91 | 0.91 | 76 | 924.7 |
| 20260505214651 | 8 | 219 | 4.8 | 9.7 | 0.00 | 0.91 | 0.91 | 77 | 924.8 |
| 20260505214148 | 8 | 347 | 4.8 | 8.0 | 0.00 | 0.91 | 0.91 | 77 | 924.6 |
| 20260505213645 | 8 | 250 | 1.6 | 8.0 | 0.00 | 0.91 | 0.91 | 77 | 924.8 |
| 20260505213142 | 8 | 335 | 4.8 | 9.7 | 0.00 | 0.91 | 0.91 | 77 | 924.7 |
| 20260505212638 | 8 | 315 | 3.2 | 4.8 | 0.00 | 0.91 | 0.91 | 76 | 924.8 |
| 20260505212136 | 8 | 226 | 4.8 | 11.3 | 0.00 | 0.91 | 0.91 | 75 | 924.8 |
| 20260505211632 | 8 | 199 | 4.8 | 9.7 | 0.00 | 0.91 | 0.91 | 77 | 924.9 |
| 20260505211130 | 7 | 120 | 3.2 | 8.0 | 0.00 | 0.91 | 0.91 | 78 | 924.7 |
| 20260505210626 | 7 | 208 | 4.8 | 11.3 | 0.00 | 0.91 | 0.91 | 78 | 924.6 |
| 20260505210123 | 7 | 216 | 4.8 | 8.0 | 0.00 | 0.91 | 0.91 | 78 | 924.8 |
| 20260505205621 | 7 | 227 | 4.8 | 11.3 | 0.00 | 0.91 | 0.91 | 77 | 925.1 |
| 20260505205119 | 7 | 337 | 9.7 | 12.9 | 0.00 | 0.91 | 0.91 | 78 | 925.1 |
| 20260505204615 | 7 | 182 | 4.8 | 8.0 | 0.00 | 0.91 | 0.91 | 81 | 925.3 |
| 20260505204113 | 6 | 333 | 6.4 | 9.7 | 0.00 | 0.91 | 0.91 | 85 | 925.2 |
| 20260505203609 | 6 | 273 | 8.0 | 9.7 | 0.00 | 0.91 | 0.91 | 87 | 925.2 |
| 20260505203107 | 6 | 169 | 4.8 | 4.8 | 0.00 | 0.91 | 0.91 | 89 | 925.4 |
| 20260505202602 | 5 | 311 | 3.2 | 9.7 | 0.00 | 0.91 | 0.91 | 91 | 925.7 |
| 20260505202058 | 5 | 337 | 3.2 | 9.7 | 0.00 | 0.91 | 0.91 | 92 | 925.4 |
| 20260505201555 | 5 | 238 | 4.8 | 9.7 | 0.00 | 0.91 | 0.91 | 92 | 925.4 |
| 20260505201053 | 5 | 27 | 1.6 | 3.2 | 0.00 | 0.91 | 0.91 | 93 | 925.4 |
| 20260505200550 | 5 | 300 | 3.2 | 4.8 | 0.00 | 0.91 | 0.91 | 93 | 925.3 |
| 20260505200047 | 5 | 261 | 1.6 | 8.0 | 0.00 | 0.91 | 0.91 | 92 | 925.3 |
| 20260505195543 | 5 | 192 | 4.8 | 9.7 | 0.00 | 0.91 | 0.91 | 92 | 925.6 |
| 20260505195041 | 5 | 22 | 0.0 | 0.0 | 0.00 | 0.91 | 0.91 | 93 | 925.4 |
| 20260505194538 | 5 | 329 | 1.6 | 3.2 | 0.00 | 0.91 | 0.91 | 93 | 925.2 |